Location: Rancho Del Sol Observatory
(38.7214°N, 120.6350°W)
Time: 06:54:54
(UTC-08:00)

A-11 Canister half - Visible Passes

Search period start: 28 January 2020 00:00
Search period end: 07 February 2020 00:00
Orbit: 1525 x 1684 km, 47.3° (Epoch: 27 January)

Date Brightness Start Highest point End Pass type
(mag) Time Alt. Az. Time Alt. Az. Time Alt. Az.
28 Jan 9.4 19:11:16 10° WNW 19:20:22 51° N 19:24:38 33° NE visible
28 Jan 9.9 21:17:12 10° WNW 21:22:56 41° NW 21:22:56 41° NW visible
29 Jan 9.4 18:49:34 10° W 18:58:40 51° N 19:04:15 26° ENE visible
29 Jan 9.5 20:55:33 10° WNW 21:02:32 51° NNW 21:02:32 51° NNW visible
29 Jan 11.3 23:00:46 10° WNW 23:00:51 10° WNW 23:00:51 10° WNW visible
30 Jan 9.4 18:27:53 10° W 18:36:57 52° N 18:43:52 19° ENE visible
30 Jan 9.2 20:33:54 10° WNW 20:42:10 59° NNW 20:42:10 59° NNW visible
30 Jan 11.0 22:39:07 10° WNW 22:40:28 15° WNW 22:40:28 15° WNW visible
31 Jan 9.4 18:06:11 10° W 18:15:15 52° N 18:23:30 14° ENE visible
31 Jan 9.0 20:12:15 10° WNW 20:21:38 62° NNE 20:21:48 62° NNE visible
31 Jan 10.7 22:17:28 10° WNW 22:20:06 21° WNW 22:20:06 21° WNW visible
01 Feb 9.4 17:44:29 10° W 17:53:33 53° N 18:02:51 10° ENE visible
01 Feb 9.0 19:50:37 10° WNW 19:59:57 60° NNE 20:01:28 55° NE visible
01 Feb 10.4 21:55:50 10° WNW 21:59:47 29° WNW 21:59:47 29° WNW visible
02 Feb 9.1 19:28:57 10° WNW 19:38:14 59° NNE 19:41:10 44° ENE visible
02 Feb 10.0 21:34:11 10° WNW 21:39:29 38° WNW 21:39:29 38° WNW visible
03 Feb 9.2 19:07:18 10° WNW 19:16:33 58° NNE 19:20:54 34° ENE visible
03 Feb 9.5 21:12:32 10° WNW 21:19:14 51° WNW 21:19:14 51° WNW visible
04 Feb 9.2 18:45:39 10° WNW 18:54:52 57° NNE 19:00:42 26° E visible
04 Feb 9.1 20:50:54 10° WNW 20:59:01 67° W 20:59:01 67° W visible
04 Feb 11.3 22:57:16 10° W 22:57:20 10° W 22:57:20 10° W visible
05 Feb 9.2 18:23:59 10° WNW 18:33:10 56° NNE 18:40:32 18° E visible
05 Feb 8.9 20:29:16 10° WNW 20:38:44 79° SW 20:38:51 79° SSW visible
05 Feb 11.0 22:35:29 10° WNW 22:37:11 15° W 22:37:11 15° W visible
06 Feb 9.3 18:02:20 10° WNW 18:11:28 55° NNE 18:20:26 11° E visible
06 Feb 8.9 20:07:38 10° WNW 20:17:06 82° SW 20:18:46 66° SE visible
06 Feb 10.7 22:13:42 10° WNW 22:17:06 20° W 22:17:06 20° W visible
